AFR26 KLAX-NTAA

Flight info

Callsign AFR26
Flight time 7h 47m
Altitude 40000
Route SUMMR2 FICKY DCT HILCO G575 ORARE DCT ASOKI ASOKI4K
Aircraft A359/H-SDE2E3GHIJ3J4J5LM1ORWXY/LB1D1

Departure

Time 2026-05-08 13:26
Airport Los Angeles International Airport (KLAX)

Arrival

Time 2026-05-08 21:13
Airport Fa'a'ā International Airport (NTAA)
Time Latitude Longitude Altitude Speed Heading
2026-05-08 13:11 33.94521 -118.41143 99 ft 0 kts 96°
2026-05-08 13:15 33.94523 -118.41168 99 ft 4 kts 96°
2026-05-08 13:15 33.94526 -118.41194 98 ft 4 kts 101°
2026-05-08 13:15 33.94534 -118.41225 101 ft 4 kts 120°
2026-05-08 13:16 33.94550 -118.41250 97 ft 4 kts 142°
2026-05-08 13:16 33.94573 -118.41265 100 ft 4 kts 166°
2026-05-08 13:16 33.94598 -118.41270 100 ft 4 kts 173°
2026-05-08 13:16 33.94615 -118.41273 100 ft 0 kts 173°
2026-05-08 13:20 33.94598 -118.41269 100 ft 9 kts 172°
2026-05-08 13:20 33.94523 -118.41266 99 ft 11 kts 194°
2026-05-08 13:20 33.94502 -118.41335 101 ft 9 kts 299°
2026-05-08 13:21 33.94560 -118.41364 103 ft 10 kts 352°
2026-05-08 13:21 33.94633 -118.41375 102 ft 11 kts 353°
2026-05-08 13:21 33.94713 -118.41386 101 ft 12 kts 353°
2026-05-08 13:21 33.94761 -118.41444 103 ft 10 kts 270°
2026-05-08 13:22 33.94753 -118.41542 100 ft 15 kts 263°
2026-05-08 13:22 33.94737 -118.41696 99 ft 22 kts 263°
2026-05-08 13:22 33.94716 -118.41903 102 ft 27 kts 263°
2026-05-08 13:22 33.94694 -118.42127 100 ft 27 kts 263°
2026-05-08 13:23 33.94671 -118.42353 102 ft 27 kts 263°
2026-05-08 13:23 33.94649 -118.42582 101 ft 28 kts 263°
2026-05-08 13:23 33.94625 -118.42809 102 ft 28 kts 263°
2026-05-08 13:23 33.94606 -118.43013 100 ft 24 kts 264°
2026-05-08 13:24 33.94593 -118.43163 102 ft 13 kts 263°
2026-05-08 13:24 33.94584 -118.43264 100 ft 12 kts 271°
2026-05-08 13:24 33.94637 -118.43323 103 ft 11 kts 350°
2026-05-08 13:24 33.94691 -118.43313 105 ft 7 kts 42°
2026-05-08 13:25 33.94704 -118.43264 104 ft 6 kts 82°
2026-05-08 13:25 33.94717 -118.43130 104 ft 42 kts 84°
2026-05-08 13:25 33.94779 -118.42521 106 ft 103 kts 83°
2026-05-08 13:25 33.94890 -118.41452 102 ft 155 kts 82°
2026-05-08 13:26 33.95030 -118.40161 725 ft 149 kts 82°
2026-05-08 13:26 33.95307 -118.38950 1238 ft 155 kts 59°
2026-05-08 13:26 33.96152 -118.38084 1606 ft 171 kts 25°
2026-05-08 13:26 33.97391 -118.37954 1896 ft 190 kts 347°
2026-05-08 13:27 33.98568 -118.38792 2181 ft 210 kts 313°
2026-05-08 13:27 33.99230 -118.40421 2523 ft 227 kts 280°
2026-05-08 13:27 33.99122 -118.42366 2807 ft 247 kts 253°
2026-05-08 13:27 33.98575 -118.44402 3219 ft 261 kts 254°
2026-05-08 13:28 33.98100 -118.46542 3843 ft 263 kts 257°
2026-05-08 13:28 33.97580 -118.48652 4575 ft 263 kts 254°
2026-05-08 13:28 33.96964 -118.50712 5242 ft 265 kts 252°
2026-05-08 13:28 33.96297 -118.52805 5832 ft 270 kts 251°
2026-05-08 13:29 33.95622 -118.54910 6520 ft 269 kts 252°
2026-05-08 13:29 33.94937 -118.57005 7232 ft 267 kts 250°
2026-05-08 13:29 33.94203 -118.59085 7855 ft 272 kts 249°
2026-05-08 13:29 33.93458 -118.61208 8463 ft 277 kts 250°
2026-05-08 13:30 33.92728 -118.63338 9081 ft 282 kts 250°
2026-05-08 13:30 33.91963 -118.65553 9738 ft 286 kts 248°
2026-05-08 13:30 33.91159 -118.67769 10331 ft 292 kts 248°
2026-05-08 13:30 33.90324 -118.70074 10644 ft 308 kts 248°
2026-05-08 13:31 33.89564 -118.72523 10911 ft 324 kts 257°
2026-05-08 13:31 33.89444 -118.75273 11177 ft 337 kts 279°
2026-05-08 13:31 33.90088 -118.78035 11467 ft 350 kts 290°
2026-05-08 13:31 33.90908 -118.80854 11718 ft 363 kts 287°
2026-05-08 13:32 33.91301 -118.83905 11986 ft 375 kts 269°
2026-05-08 13:32 33.90887 -118.87029 12449 ft 380 kts 256°
2026-05-08 13:32 33.90216 -118.90093 12935 ft 385 kts 255°
2026-05-08 13:32 33.89502 -118.93245 13404 ft 389 kts 255°
2026-05-08 13:33 33.88798 -118.96366 13893 ft 393 kts 255°
2026-05-08 13:33 33.88082 -118.99553 14335 ft 396 kts 255°
2026-05-08 13:33 33.87363 -119.02767 14795 ft 399 kts 255°
2026-05-08 13:33 33.86635 -119.06016 15260 ft 402 kts 255°
2026-05-08 13:34 33.85905 -119.09279 15718 ft 405 kts 255°
2026-05-08 13:34 33.85170 -119.12560 16168 ft 408 kts 255°
2026-05-08 13:34 33.84428 -119.15868 16623 ft 411 kts 255°
2026-05-08 13:34 33.83687 -119.19165 17078 ft 413 kts 255°
2026-05-08 13:35 33.82932 -119.22520 17540 ft 416 kts 255°
2026-05-08 13:35 33.82168 -119.25911 17993 ft 419 kts 255°
2026-05-08 13:35 33.81391 -119.29268 18468 ft 422 kts 253°
2026-05-08 13:35 33.80307 -119.32571 18871 ft 425 kts 243°
2026-05-08 13:36 33.78730 -119.35552 19304 ft 427 kts 232°
2026-05-08 13:36 33.76668 -119.38135 19745 ft 430 kts 221°
2026-05-08 13:36 33.74323 -119.40405 20199 ft 433 kts 218°
2026-05-08 13:36 33.71926 -119.42629 20623 ft 436 kts 218°
2026-05-08 13:37 33.69545 -119.44841 21055 ft 438 kts 218°
2026-05-08 13:37 33.67124 -119.47097 21503 ft 441 kts 218°
2026-05-08 13:37 33.64697 -119.49362 21957 ft 443 kts 218°
2026-05-08 13:37 33.62249 -119.51650 22422 ft 445 kts 218°
2026-05-08 13:38 33.59797 -119.53940 22883 ft 448 kts 218°
2026-05-08 13:38 33.57355 -119.56221 23375 ft 450 kts 218°
2026-05-08 13:38 33.54870 -119.58540 23822 ft 452 kts 218°
2026-05-08 13:38 33.52374 -119.60869 24213 ft 455 kts 218°
2026-05-08 13:39 33.49890 -119.63185 24598 ft 458 kts 218°
2026-05-08 13:39 33.47367 -119.65536 24996 ft 461 kts 218°
2026-05-08 13:39 33.44820 -119.67907 25407 ft 463 kts 218°
2026-05-08 13:39 33.42267 -119.70282 25806 ft 466 kts 218°
2026-05-08 13:40 33.39696 -119.72672 26209 ft 469 kts 218°
2026-05-08 13:40 33.37107 -119.75076 26593 ft 472 kts 218°
2026-05-08 13:40 33.34499 -119.77497 26987 ft 474 kts 218°
2026-05-08 13:40 33.31920 -119.79888 27369 ft 477 kts 218°
2026-05-08 13:41 33.29288 -119.82327 27749 ft 479 kts 218°
2026-05-08 13:41 33.26646 -119.84774 28129 ft 482 kts 218°
2026-05-08 13:41 33.23984 -119.87236 28497 ft 484 kts 218°
2026-05-08 13:41 33.21304 -119.89715 28861 ft 487 kts 218°
2026-05-08 13:42 33.18612 -119.92201 29197 ft 489 kts 218°
2026-05-08 13:42 33.15940 -119.94667 29528 ft 492 kts 218°
2026-05-08 13:42 33.13218 -119.97178 29860 ft 494 kts 218°
2026-05-08 13:42 33.10481 -119.99699 30152 ft 497 kts 218°
2026-05-08 13:43 33.07732 -120.02231 30385 ft 500 kts 218°
2026-05-08 13:43 33.04965 -120.04777 30647 ft 502 kts 218°
2026-05-08 13:43 33.02232 -120.07289 31007 ft 501 kts 218°
2026-05-08 13:43 32.99466 -120.09830 31367 ft 501 kts 218°
2026-05-08 13:44 32.96702 -120.12366 31695 ft 501 kts 219°
2026-05-08 13:44 32.93929 -120.14909 31928 ft 503 kts 219°
2026-05-08 13:44 32.91185 -120.17424 32241 ft 503 kts 218°
2026-05-08 13:44 32.88402 -120.19971 32627 ft 501 kts 218°
2026-05-08 13:45 32.85634 -120.22503 32981 ft 500 kts 219°
2026-05-08 13:45 32.82875 -120.25025 33301 ft 499 kts 219°
2026-05-08 13:45 32.80154 -120.27511 33622 ft 498 kts 218°
2026-05-08 13:45 32.77405 -120.30019 33996 ft 497 kts 218°
2026-05-08 13:46 32.74666 -120.32516 34298 ft 496 kts 218°
2026-05-08 13:46 32.71929 -120.35010 34553 ft 495 kts 218°
2026-05-08 13:46 32.69184 -120.37510 34792 ft 495 kts 218°
2026-05-08 13:46 32.66485 -120.39965 35044 ft 494 kts 218°
2026-05-08 13:47 32.63751 -120.42451 35252 ft 494 kts 218°
2026-05-08 13:47 32.61009 -120.44942 35405 ft 495 kts 218°
2026-05-08 13:47 32.58269 -120.47433 35612 ft 495 kts 218°
2026-05-08 13:47 32.55560 -120.49895 35839 ft 495 kts 218°
2026-05-08 13:48 32.52819 -120.52379 36062 ft 494 kts 219°
2026-05-08 13:48 32.50092 -120.54849 36234 ft 494 kts 218°
2026-05-08 13:48 32.47350 -120.57331 36414 ft 495 kts 218°
2026-05-08 13:48 32.44611 -120.59809 36611 ft 494 kts 219°
2026-05-08 13:49 32.41865 -120.62291 36794 ft 494 kts 218°
2026-05-08 13:49 32.39163 -120.64732 36959 ft 494 kts 218°
2026-05-08 13:49 32.36422 -120.67206 37126 ft 494 kts 218°
2026-05-08 13:49 32.33681 -120.69680 37293 ft 494 kts 219°
2026-05-08 13:50 32.30952 -120.72139 37447 ft 494 kts 218°
2026-05-08 13:50 32.28215 -120.74607 37615 ft 493 kts 219°
2026-05-08 13:50 32.25519 -120.77036 37755 ft 493 kts 219°
2026-05-08 13:50 32.22780 -120.79501 37886 ft 493 kts 218°
2026-05-08 13:51 32.20039 -120.81961 38014 ft 494 kts 218°
2026-05-08 13:51 32.17299 -120.84421 38117 ft 494 kts 219°
2026-05-08 13:51 32.11828 -120.89335 38128 ft 497 kts 219°
2026-05-08 13:52 32.06311 -120.94268 38126 ft 496 kts 219°
2026-05-08 13:52 32.00810 -120.99184 38133 ft 497 kts 219°
2026-05-08 13:53 31.95292 -121.04109 38132 ft 500 kts 219°
2026-05-08 13:53 31.89742 -121.09056 38133 ft 500 kts 218°
2026-05-08 13:54 31.84213 -121.13976 38135 ft 500 kts 219°
2026-05-08 13:54 31.78651 -121.18918 38138 ft 500 kts 219°
2026-05-08 13:55 31.73132 -121.23815 38138 ft 500 kts 218°
2026-05-08 13:56 31.64758 -121.31230 38141 ft 503 kts 219°
2026-05-08 13:56 31.59182 -121.36159 38140 ft 503 kts 219°
2026-05-08 13:57 31.53559 -121.41076 38143 ft 503 kts 216°
2026-05-08 13:57 31.47652 -121.45485 38143 ft 503 kts 213°
2026-05-08 13:58 31.41678 -121.49709 38143 ft 503 kts 213°
2026-05-08 13:58 31.35745 -121.53997 38144 ft 504 kts 214°
2026-05-08 13:59 31.29774 -121.58386 38150 ft 509 kts 214°
2026-05-08 13:59 31.23768 -121.62816 38148 ft 509 kts 214°
2026-05-08 14:00 31.17803 -121.67206 38154 ft 508 kts 214°
2026-05-08 14:00 31.11807 -121.71609 38154 ft 508 kts 214°
2026-05-08 14:01 31.05852 -121.75975 38154 ft 508 kts 214°
2026-05-08 14:01 30.99853 -121.80366 38144 ft 508 kts 214°
2026-05-08 14:02 30.93879 -121.84733 38157 ft 511 kts 214°
2026-05-08 14:02 30.87839 -121.89140 38156 ft 511 kts 214°
2026-05-08 14:03 30.81795 -121.93544 38156 ft 511 kts 214°
2026-05-08 14:03 30.75781 -121.97919 38163 ft 511 kts 214°
2026-05-08 14:04 30.69734 -122.02311 38161 ft 511 kts 214°
2026-05-08 14:04 30.63718 -122.06675 38162 ft 509 kts 214°
2026-05-08 14:05 30.57742 -122.11004 38162 ft 510 kts 214°
2026-05-08 14:05 30.51700 -122.15374 38161 ft 511 kts 214°
2026-05-08 14:06 30.45658 -122.19738 38164 ft 511 kts 214°
2026-05-08 14:06 30.39652 -122.24068 38168 ft 511 kts 214°
2026-05-08 14:07 30.33594 -122.28430 38165 ft 509 kts 214°
2026-05-08 14:07 30.27608 -122.32734 38166 ft 508 kts 214°
2026-05-08 14:08 30.22591 -122.36336 38161 ft 508 kts 214°
2026-05-08 14:08 30.16595 -122.40637 38171 ft 510 kts 214°
2026-05-08 14:09 30.10550 -122.44965 38177 ft 510 kts 214°
2026-05-08 14:09 30.04544 -122.49259 38181 ft 509 kts 214°
2026-05-08 14:10 29.98518 -122.53566 38178 ft 507 kts 214°
2026-05-08 14:10 29.92571 -122.57909 38166 ft 507 kts 215°
2026-05-08 14:11 29.86654 -122.62262 38168 ft 507 kts 215°
2026-05-08 14:11 29.80691 -122.66633 38173 ft 508 kts 214°
2026-05-08 14:12 29.74710 -122.70998 38173 ft 507 kts 214°
2026-05-08 14:12 29.68767 -122.75327 38176 ft 506 kts 214°
2026-05-08 14:13 29.62805 -122.79663 38179 ft 506 kts 214°
2026-05-08 14:13 29.56886 -122.83964 38182 ft 506 kts 214°
2026-05-08 14:14 29.50927 -122.88286 38177 ft 506 kts 214°
2026-05-08 14:14 29.44964 -122.92607 38178 ft 506 kts 214°
2026-05-08 14:15 29.39034 -122.96896 38180 ft 505 kts 214°
2026-05-08 14:15 29.33078 -123.01199 38181 ft 505 kts 214°
2026-05-08 14:16 29.27156 -123.05471 38185 ft 505 kts 214°
2026-05-08 14:16 29.21190 -123.09769 38187 ft 505 kts 214°
2026-05-08 14:17 29.15263 -123.14033 38181 ft 505 kts 214°
2026-05-08 14:17 29.09301 -123.18316 38183 ft 505 kts 214°
2026-05-08 14:18 29.03370 -123.22570 38188 ft 505 kts 214°
2026-05-08 14:18 28.97393 -123.26853 38186 ft 505 kts 214°
2026-05-08 14:19 28.91470 -123.31090 38184 ft 505 kts 214°
2026-05-08 14:19 28.85496 -123.35358 38191 ft 505 kts 214°
2026-05-08 14:20 28.79557 -123.39595 38186 ft 505 kts 214°
2026-05-08 14:20 28.73581 -123.43853 38186 ft 505 kts 214°
2026-05-08 14:21 28.67613 -123.48099 38186 ft 505 kts 214°
2026-05-08 14:21 28.61672 -123.52320 38186 ft 505 kts 214°
2026-05-08 14:22 28.55726 -123.56540 38186 ft 505 kts 214°
2026-05-08 14:22 28.49740 -123.60781 38189 ft 504 kts 214°
2026-05-08 14:23 28.43810 -123.64978 38186 ft 504 kts 214°
2026-05-08 14:23 28.37830 -123.69204 38183 ft 504 kts 214°
2026-05-08 14:24 28.31891 -123.73396 38195 ft 505 kts 214°
2026-05-08 14:24 28.25901 -123.77618 38194 ft 506 kts 214°
2026-05-08 14:25 28.19950 -123.81807 38190 ft 505 kts 213°
2026-05-08 14:25 28.13959 -123.86018 38189 ft 505 kts 213°
2026-05-08 14:26 28.07990 -123.90208 38191 ft 505 kts 213°
2026-05-08 14:26 28.02011 -123.94400 38190 ft 505 kts 213°
2026-05-08 14:27 27.96044 -123.98578 38190 ft 506 kts 213°
2026-05-08 14:27 27.90080 -124.02749 38192 ft 506 kts 213°
2026-05-08 14:28 27.84075 -124.06942 38194 ft 506 kts 213°
2026-05-08 14:28 27.78081 -124.11122 38192 ft 506 kts 213°
2026-05-08 14:29 27.72114 -124.15278 38193 ft 506 kts 213°
2026-05-08 14:29 27.66109 -124.19455 38192 ft 506 kts 213°
2026-05-08 14:30 27.60139 -124.23603 38191 ft 507 kts 213°
2026-05-08 14:30 27.54127 -124.27774 38195 ft 507 kts 213°
2026-05-08 14:31 27.48092 -124.31955 38197 ft 507 kts 213°
2026-05-08 14:31 27.42107 -124.36096 38195 ft 507 kts 213°
2026-05-08 14:32 27.33061 -124.42346 38195 ft 507 kts 213°
2026-05-08 14:32 27.27072 -124.46476 38195 ft 508 kts 213°
2026-05-08 14:33 27.21029 -124.50639 38195 ft 508 kts 213°
2026-05-08 14:33 27.15033 -124.54765 38198 ft 508 kts 213°
2026-05-08 14:34 27.08983 -124.58921 38195 ft 508 kts 213°
2026-05-08 14:34 27.02982 -124.63039 38195 ft 508 kts 213°
2026-05-08 14:35 26.96956 -124.67169 38198 ft 508 kts 213°
2026-05-08 14:35 26.90905 -124.71310 38195 ft 508 kts 213°
2026-05-08 14:36 26.84856 -124.75446 38197 ft 508 kts 213°
2026-05-08 14:36 26.78833 -124.79558 38196 ft 509 kts 213°
2026-05-08 14:37 26.72776 -124.83688 38195 ft 509 kts 213°
2026-05-08 14:37 26.66762 -124.87784 38194 ft 509 kts 213°
2026-05-08 14:38 26.60703 -124.91905 38195 ft 509 kts 213°
2026-05-08 14:38 26.54673 -124.96001 38192 ft 509 kts 213°
2026-05-08 14:39 26.48612 -125.00113 38186 ft 508 kts 213°
2026-05-08 14:39 26.42555 -125.04218 38199 ft 509 kts 213°
2026-05-08 14:40 26.36539 -125.08289 38192 ft 508 kts 213°
2026-05-08 14:40 26.30477 -125.12387 38189 ft 508 kts 213°
2026-05-08 14:41 26.24445 -125.16459 38188 ft 508 kts 213°
2026-05-08 14:41 26.18415 -125.20525 38187 ft 508 kts 213°
2026-05-08 14:42 26.12360 -125.24603 38206 ft 508 kts 213°
2026-05-08 14:42 26.06302 -125.28677 38194 ft 508 kts 213°
2026-05-08 14:43 26.00247 -125.32745 38194 ft 508 kts 213°
2026-05-08 14:43 25.94224 -125.36787 38184 ft 508 kts 213°
2026-05-08 14:44 25.88174 -125.40841 38192 ft 508 kts 213°
2026-05-08 14:44 25.82113 -125.44898 38187 ft 508 kts 213°
2026-05-08 14:45 25.76080 -125.48932 38195 ft 508 kts 213°
2026-05-08 14:45 25.70008 -125.52986 38186 ft 509 kts 214°
2026-05-08 14:46 25.63933 -125.57039 38197 ft 509 kts 213°
2026-05-08 14:46 25.57883 -125.61069 38188 ft 509 kts 213°
2026-05-08 14:47 25.51788 -125.65124 38190 ft 509 kts 213°
2026-05-08 14:47 25.45736 -125.69146 38181 ft 509 kts 214°
2026-05-08 14:48 25.39647 -125.73187 38188 ft 508 kts 214°
2026-05-08 14:48 25.33613 -125.77187 38181 ft 508 kts 214°
2026-05-08 14:49 25.27514 -125.81227 38185 ft 510 kts 214°
2026-05-08 14:49 25.21446 -125.85241 38182 ft 510 kts 214°
2026-05-08 14:50 25.15343 -125.89272 38180 ft 510 kts 214°
2026-05-08 14:50 25.09284 -125.93270 38184 ft 509 kts 214°
2026-05-08 14:51 25.03192 -125.97285 38187 ft 509 kts 214°
2026-05-08 14:51 24.97138 -126.01271 38182 ft 509 kts 214°
2026-05-08 14:52 24.87995 -126.07281 38181 ft 509 kts 214°
2026-05-08 14:53 24.81943 -126.11254 38182 ft 508 kts 214°
2026-05-08 14:53 24.75872 -126.15234 38181 ft 507 kts 214°
2026-05-08 14:54 24.69819 -126.19198 38180 ft 507 kts 214°
2026-05-08 14:54 24.63738 -126.23177 38181 ft 507 kts 214°
2026-05-08 14:55 24.57703 -126.27120 38179 ft 508 kts 215°
2026-05-08 14:55 24.51599 -126.31104 38184 ft 508 kts 215°
2026-05-08 14:56 24.45565 -126.35037 38176 ft 507 kts 215°
2026-05-08 14:56 24.39486 -126.38996 38180 ft 507 kts 215°
2026-05-08 14:57 24.33436 -126.42931 38179 ft 507 kts 215°
2026-05-08 14:57 24.27362 -126.46878 38180 ft 507 kts 215°
2026-05-08 14:58 24.21284 -126.50823 38161 ft 506 kts 215°
2026-05-08 14:58 24.15229 -126.54747 38175 ft 504 kts 215°
2026-05-08 14:59 24.09226 -126.58634 38176 ft 504 kts 215°
2026-05-08 14:59 24.01175 -126.63842 38176 ft 504 kts 215°
2026-05-08 15:00 23.95132 -126.67745 38172 ft 504 kts 215°
2026-05-08 15:00 23.89086 -126.71646 38174 ft 503 kts 215°
2026-05-08 15:01 23.83099 -126.75503 38164 ft 502 kts 215°
2026-05-08 15:01 23.77077 -126.79379 38171 ft 499 kts 215°
2026-05-08 15:02 23.71080 -126.83236 38168 ft 499 kts 215°
2026-05-08 15:02 23.65115 -126.87069 38168 ft 499 kts 215°
2026-05-08 15:03 23.59159 -126.90891 38168 ft 499 kts 215°
2026-05-08 15:03 23.53196 -126.94712 38169 ft 497 kts 215°
2026-05-08 15:04 23.47240 -126.98527 38171 ft 496 kts 215°
2026-05-08 15:04 23.41255 -127.02354 38165 ft 495 kts 215°
2026-05-08 15:05 23.35361 -127.06120 38158 ft 493 kts 215°
2026-05-08 15:05 23.29425 -127.09910 38147 ft 493 kts 215°
2026-05-08 15:06 23.23545 -127.13659 38157 ft 491 kts 215°
2026-05-08 15:06 23.17657 -127.17409 38156 ft 490 kts 215°
2026-05-08 15:07 23.11761 -127.21162 38161 ft 490 kts 215°
2026-05-08 15:07 23.05868 -127.24909 38152 ft 490 kts 215°
2026-05-08 15:08 23.00021 -127.28621 38157 ft 487 kts 215°
2026-05-08 15:08 22.94161 -127.32338 38153 ft 486 kts 215°
2026-05-08 15:09 22.88343 -127.36026 38151 ft 486 kts 215°
2026-05-08 15:09 22.82496 -127.39728 38152 ft 486 kts 215°
2026-05-08 15:10 22.76670 -127.43413 38154 ft 486 kts 215°
2026-05-08 15:10 22.70842 -127.47096 38151 ft 486 kts 215°
2026-05-08 15:11 22.64989 -127.50790 38152 ft 486 kts 215°
2026-05-08 15:11 22.59167 -127.54462 38154 ft 486 kts 215°
2026-05-08 15:12 22.53320 -127.58145 38151 ft 486 kts 215°
2026-05-08 15:12 22.47463 -127.61831 38155 ft 486 kts 215°
2026-05-08 15:13 22.41645 -127.65489 38154 ft 486 kts 215°
2026-05-08 15:13 22.35817 -127.69150 38136 ft 486 kts 216°
2026-05-08 15:14 22.29959 -127.72826 38142 ft 486 kts 216°
2026-05-08 15:14 22.24117 -127.76488 38143 ft 486 kts 216°
2026-05-08 15:15 22.18264 -127.80154 38148 ft 486 kts 216°
2026-05-08 15:15 22.12409 -127.83817 38146 ft 486 kts 216°
2026-05-08 15:16 22.06574 -127.87465 38154 ft 486 kts 216°
2026-05-08 15:16 22.00751 -127.91101 38143 ft 485 kts 216°
2026-05-08 15:17 21.94896 -127.94753 38141 ft 485 kts 216°
2026-05-08 15:17 21.89074 -127.98382 38143 ft 485 kts 216°
2026-05-08 15:18 21.83220 -128.02027 38138 ft 484 kts 216°
2026-05-08 15:18 21.77404 -128.05638 38138 ft 485 kts 216°
2026-05-08 15:19 21.71539 -128.09259 38133 ft 484 kts 216°
2026-05-08 15:19 21.65739 -128.12835 38135 ft 482 kts 216°
2026-05-08 15:20 21.59920 -128.16424 38135 ft 482 kts 216°
2026-05-08 15:20 21.54089 -128.20020 38128 ft 482 kts 216°
2026-05-08 15:21 21.48301 -128.23585 38132 ft 481 kts 216°
2026-05-08 15:21 21.42470 -128.27174 38122 ft 481 kts 216°
2026-05-08 15:22 21.36694 -128.30725 38130 ft 480 kts 216°
2026-05-08 15:22 21.30895 -128.34288 38128 ft 479 kts 216°
2026-05-08 15:23 21.25130 -128.37827 38128 ft 479 kts 216°
2026-05-08 15:23 21.19337 -128.41379 38128 ft 479 kts 216°
2026-05-08 15:24 21.13526 -128.44939 38128 ft 479 kts 216°
2026-05-08 15:24 21.07728 -128.48487 38123 ft 479 kts 216°
2026-05-08 15:25 21.01978 -128.52002 38127 ft 478 kts 216°
2026-05-08 15:25 20.96210 -128.55527 38124 ft 478 kts 216°
2026-05-08 15:26 20.90424 -128.59059 38121 ft 478 kts 216°
2026-05-08 15:26 20.84681 -128.62562 38118 ft 478 kts 216°
2026-05-08 15:27 20.78882 -128.66095 38105 ft 477 kts 216°
2026-05-08 15:27 20.73131 -128.69595 38118 ft 476 kts 217°
2026-05-08 15:28 20.67394 -128.73084 38117 ft 475 kts 217°
2026-05-08 15:28 20.61664 -128.76567 38113 ft 475 kts 217°
2026-05-08 15:29 20.55903 -128.80065 38113 ft 475 kts 217°
2026-05-08 15:29 20.50143 -128.83559 38113 ft 475 kts 217°
2026-05-08 15:30 20.44414 -128.87016 38108 ft 473 kts 218°
2026-05-08 15:30 20.38690 -128.90492 38106 ft 472 kts 217°
2026-05-08 15:31 20.32999 -128.93942 38107 ft 472 kts 217°
2026-05-08 15:31 20.27276 -128.97402 38107 ft 472 kts 217°
2026-05-08 15:32 20.21599 -129.00830 38099 ft 472 kts 217°
2026-05-08 15:32 20.15864 -129.04291 38097 ft 471 kts 217°
2026-05-08 15:33 20.10177 -129.07719 38098 ft 471 kts 217°
2026-05-08 15:33 20.04453 -129.11167 38096 ft 471 kts 217°
2026-05-08 15:34 19.98782 -129.14582 38092 ft 471 kts 217°
2026-05-08 15:34 19.93063 -129.18021 38091 ft 471 kts 217°
2026-05-08 15:35 19.87378 -129.21438 38080 ft 471 kts 217°
2026-05-08 15:35 19.81686 -129.24854 38091 ft 465 kts 218°
2026-05-08 15:36 19.77033 -129.27679 38096 ft 463 kts 218°
2026-05-08 15:36 19.70497 -129.31583 38096 ft 463 kts 218°
2026-05-08 15:37 19.64884 -129.34931 38095 ft 463 kts 218°
2026-05-08 15:37 19.59299 -129.38269 38092 ft 462 kts 218°
2026-05-08 15:38 19.53689 -129.41623 38092 ft 461 kts 218°
2026-05-08 15:38 19.48091 -129.44970 38093 ft 461 kts 218°
2026-05-08 15:39 19.42534 -129.48289 38088 ft 461 kts 218°
2026-05-08 15:39 19.36935 -129.51629 38083 ft 461 kts 218°
2026-05-08 15:40 19.31332 -129.54969 38082 ft 461 kts 218°
2026-05-08 15:40 19.25771 -129.58282 38062 ft 461 kts 218°
2026-05-08 15:41 19.20167 -129.61616 38080 ft 460 kts 218°
2026-05-08 15:41 19.14609 -129.64921 38082 ft 459 kts 218°
2026-05-08 15:42 19.09049 -129.68226 38078 ft 459 kts 218°
2026-05-08 15:42 19.03455 -129.71547 38077 ft 459 kts 218°
2026-05-08 15:43 18.97913 -129.74836 38073 ft 459 kts 218°
2026-05-08 15:43 18.92326 -129.78149 38072 ft 459 kts 217°
2026-05-08 15:44 18.86748 -129.81453 38067 ft 460 kts 217°
2026-05-08 15:44 18.81181 -129.84748 38075 ft 459 kts 217°
2026-05-08 15:45 18.75595 -129.88052 38069 ft 459 kts 217°
2026-05-08 15:45 18.70058 -129.91325 38071 ft 459 kts 217°
2026-05-08 15:46 18.64467 -129.94627 38073 ft 459 kts 217°
2026-05-08 15:46 18.58886 -129.97921 38070 ft 460 kts 216°
2026-05-08 15:47 18.53322 -130.01202 38070 ft 460 kts 216°
2026-05-08 15:47 18.47723 -130.04501 38057 ft 461 kts 216°
2026-05-08 15:48 18.40263 -130.08892 38070 ft 461 kts 216°
2026-05-08 15:49 18.34672 -130.12181 38072 ft 461 kts 216°
2026-05-08 15:49 18.29049 -130.15487 38059 ft 462 kts 216°
2026-05-08 15:50 18.23430 -130.18788 38057 ft 464 kts 216°
2026-05-08 15:50 18.17806 -130.22088 38062 ft 464 kts 216°
2026-05-08 15:51 18.12158 -130.25399 38048 ft 464 kts 216°
2026-05-08 15:51 18.06536 -130.28694 38056 ft 465 kts 216°
2026-05-08 15:52 18.00867 -130.32013 38048 ft 465 kts 216°
2026-05-08 15:52 17.95221 -130.35318 38056 ft 466 kts 216°
2026-05-08 15:53 17.89534 -130.38644 38057 ft 467 kts 216°
2026-05-08 15:53 17.83886 -130.41943 38055 ft 467 kts 216°
2026-05-08 15:54 17.78196 -130.45265 38056 ft 467 kts 216°
2026-05-08 15:54 17.72508 -130.48583 38045 ft 467 kts 216°
2026-05-08 15:55 17.66840 -130.51889 38050 ft 468 kts 216°
2026-05-08 15:55 17.58282 -130.56874 38050 ft 468 kts 216°
2026-05-08 15:56 17.52609 -130.60175 38053 ft 468 kts 216°
2026-05-08 15:56 17.46912 -130.63488 38053 ft 468 kts 216°
2026-05-08 15:57 17.41242 -130.66783 38053 ft 468 kts 216°
2026-05-08 15:57 17.35544 -130.70091 38050 ft 466 kts 216°
2026-05-08 15:58 17.29891 -130.73370 38050 ft 465 kts 216°
2026-05-08 15:58 17.24228 -130.76655 38053 ft 465 kts 216°
2026-05-08 15:59 17.18553 -130.79944 38055 ft 465 kts 216°
2026-05-08 15:59 17.12899 -130.83219 38051 ft 465 kts 216°
2026-05-08 16:00 17.07226 -130.86501 38049 ft 466 kts 216°
2026-05-08 16:00 17.01536 -130.89793 38051 ft 468 kts 216°
2026-05-08 16:01 16.95871 -130.93066 38047 ft 467 kts 216°
2026-05-08 16:01 16.90173 -130.96354 38047 ft 466 kts 216°
2026-05-08 16:02 16.84530 -130.99610 38048 ft 466 kts 216°
2026-05-08 16:02 16.78834 -131.02895 38044 ft 466 kts 216°
2026-05-08 16:03 16.73182 -131.06153 38046 ft 466 kts 216°
2026-05-08 16:03 16.67498 -131.09426 38046 ft 466 kts 216°
2026-05-08 16:04 16.61789 -131.12711 38044 ft 467 kts 216°
2026-05-08 16:04 16.56123 -131.15968 38043 ft 466 kts 216°
2026-05-08 16:05 16.50438 -131.19235 38046 ft 466 kts 216°
2026-05-08 16:05 16.44790 -131.22479 38048 ft 466 kts 216°
2026-05-08 16:06 16.39105 -131.25741 38043 ft 466 kts 216°
2026-05-08 16:06 16.33444 -131.28988 38044 ft 466 kts 216°
2026-05-08 16:07 16.27758 -131.32246 38039 ft 466 kts 216°
2026-05-08 16:07 16.22101 -131.35486 38041 ft 466 kts 216°
2026-05-08 16:08 16.16417 -131.38739 38029 ft 465 kts 216°
2026-05-08 16:08 16.10746 -131.41983 38037 ft 464 kts 216°
2026-05-08 16:09 16.05119 -131.45200 38037 ft 464 kts 216°
2026-05-08 16:09 15.99444 -131.48441 38037 ft 464 kts 216°
2026-05-08 16:10 15.93766 -131.51683 38037 ft 464 kts 216°
2026-05-08 16:10 15.88134 -131.54896 38034 ft 464 kts 216°
2026-05-08 16:11 15.82468 -131.58126 38034 ft 463 kts 216°
2026-05-08 16:11 15.76804 -131.61352 38028 ft 463 kts 216°
2026-05-08 16:12 15.71189 -131.64550 38028 ft 463 kts 216°
2026-05-08 16:12 15.65528 -131.67772 38023 ft 463 kts 216°
2026-05-08 16:13 15.59899 -131.70973 38022 ft 463 kts 216°
2026-05-08 16:13 15.54237 -131.74191 38026 ft 463 kts 215°
2026-05-08 16:14 15.48599 -131.77393 38020 ft 464 kts 215°
2026-05-08 16:14 15.42939 -131.80606 38014 ft 463 kts 215°
2026-05-08 16:15 15.37312 -131.83797 38016 ft 463 kts 215°
2026-05-08 16:15 15.31649 -131.87008 38010 ft 463 kts 215°
2026-05-08 16:16 15.25986 -131.90216 38017 ft 463 kts 215°
2026-05-08 16:16 15.20360 -131.93402 38016 ft 464 kts 215°
2026-05-08 16:17 15.15633 -131.96077 38008 ft 464 kts 215°
2026-05-08 16:17 15.09031 -131.99810 38011 ft 464 kts 215°
2026-05-08 16:18 15.03390 -132.02997 38014 ft 463 kts 215°
2026-05-08 16:18 14.97727 -132.06196 38014 ft 463 kts 215°
2026-05-08 16:19 14.92058 -132.09396 38005 ft 465 kts 214°
2026-05-08 16:19 14.86396 -132.12592 38017 ft 466 kts 214°
2026-05-08 16:20 14.80674 -132.15817 38015 ft 466 kts 214°
2026-05-08 16:20 14.75012 -132.19006 38009 ft 466 kts 214°
2026-05-08 16:21 14.69287 -132.22230 38006 ft 468 kts 214°
2026-05-08 16:21 14.63601 -132.25432 37998 ft 469 kts 215°
2026-05-08 16:22 14.57830 -132.28695 38011 ft 476 kts 215°
2026-05-08 16:22 14.51983 -132.31976 38007 ft 476 kts 214°
2026-05-08 16:23 14.46185 -132.35223 38004 ft 476 kts 214°
2026-05-08 16:23 14.40357 -132.38488 38004 ft 476 kts 214°
2026-05-08 16:24 14.34566 -132.41736 37994 ft 476 kts 214°
2026-05-08 16:24 14.28729 -132.45005 38002 ft 477 kts 213°
2026-05-08 16:25 14.22925 -132.48258 38001 ft 477 kts 213°
2026-05-08 16:25 14.17084 -132.51530 38003 ft 477 kts 213°
2026-05-08 16:26 14.11245 -132.54798 37999 ft 477 kts 213°
2026-05-08 16:26 14.05429 -132.58050 37990 ft 477 kts 213°
2026-05-08 16:27 13.99584 -132.61317 38001 ft 478 kts 213°
2026-05-08 16:27 13.93756 -132.64573 37999 ft 478 kts 213°
2026-05-08 16:28 13.87885 -132.67851 37998 ft 478 kts 213°
2026-05-08 16:28 13.82069 -132.71096 38000 ft 478 kts 213°
2026-05-08 16:29 13.76216 -132.74359 37998 ft 478 kts 213°
2026-05-08 16:29 13.70389 -132.77607 37999 ft 479 kts 213°
2026-05-08 16:30 13.64510 -132.80882 37994 ft 480 kts 213°
2026-05-08 16:30 13.58664 -132.84136 38001 ft 480 kts 213°
2026-05-08 16:31 13.52780 -132.87409 37993 ft 480 kts 213°
2026-05-08 16:31 13.46921 -132.90667 37990 ft 480 kts 213°
2026-05-08 16:32 13.41052 -132.93929 37990 ft 480 kts 213°
2026-05-08 16:32 13.35199 -132.97180 37989 ft 480 kts 213°
2026-05-08 16:33 13.29321 -133.00443 38192 ft 479 kts 213°
2026-05-08 16:33 13.26383 -133.02072 38412 ft 478 kts 213°
2026-05-08 16:33 13.23461 -133.03692 38626 ft 477 kts 213°
2026-05-08 16:34 13.20572 -133.05294 38793 ft 476 kts 213°
2026-05-08 16:34 13.17656 -133.06911 38943 ft 475 kts 213°
2026-05-08 16:34 13.14734 -133.08530 39060 ft 475 kts 213°
2026-05-08 16:34 13.11859 -133.10125 39148 ft 475 kts 213°
2026-05-08 16:35 13.08941 -133.11742 39265 ft 475 kts 213°
2026-05-08 16:35 13.06025 -133.13357 39396 ft 475 kts 213°
2026-05-08 16:35 13.03110 -133.14971 39503 ft 474 kts 213°
2026-05-08 16:35 13.00205 -133.16579 39634 ft 474 kts 213°
2026-05-08 16:36 12.97322 -133.18173 39741 ft 474 kts 213°
2026-05-08 16:36 12.94404 -133.19788 39855 ft 473 kts 213°
2026-05-08 16:36 12.88630 -133.22982 39984 ft 475 kts 213°
2026-05-08 16:37 12.82791 -133.26210 39982 ft 475 kts 213°
2026-05-08 16:37 12.76981 -133.29420 39983 ft 477 kts 213°
2026-05-08 16:38 12.71130 -133.32650 39983 ft 477 kts 213°
2026-05-08 16:38 12.65266 -133.35885 39983 ft 477 kts 213°
2026-05-08 16:39 12.59443 -133.39097 39982 ft 477 kts 213°
2026-05-08 16:39 12.54564 -133.41786 39978 ft 477 kts 213°
2026-05-08 16:40 12.48693 -133.45023 39979 ft 480 kts 213°
2026-05-08 16:40 12.42825 -133.48255 39979 ft 481 kts 213°
2026-05-08 16:41 12.36948 -133.51489 39976 ft 481 kts 213°
2026-05-08 16:42 12.28094 -133.56359 39978 ft 481 kts 213°
2026-05-08 16:42 12.22225 -133.59585 39980 ft 480 kts 213°
2026-05-08 16:43 12.16327 -133.62826 39975 ft 480 kts 213°
2026-05-08 16:43 12.10465 -133.66045 39975 ft 480 kts 213°
2026-05-08 16:44 12.04573 -133.69280 39973 ft 480 kts 213°
2026-05-08 16:44 11.98716 -133.72493 39975 ft 480 kts 212°
2026-05-08 16:45 11.92813 -133.75730 39969 ft 481 kts 212°
2026-05-08 16:45 11.86946 -133.78946 39974 ft 481 kts 212°
2026-05-08 16:46 11.81039 -133.82182 39976 ft 481 kts 212°
2026-05-08 16:46 11.75123 -133.85421 39973 ft 481 kts 212°
2026-05-08 16:47 11.69246 -133.88637 39975 ft 481 kts 212°
2026-05-08 16:47 11.63326 -133.91876 39977 ft 481 kts 212°
2026-05-08 16:48 11.57441 -133.95093 39973 ft 481 kts 212°
2026-05-08 16:48 11.51526 -133.98326 39970 ft 481 kts 212°
2026-05-08 16:49 11.45627 -134.01548 39967 ft 481 kts 212°
2026-05-08 16:49 11.39712 -134.04777 39971 ft 481 kts 212°
2026-05-08 16:50 11.33839 -134.07982 39968 ft 481 kts 211°
2026-05-08 16:50 11.27912 -134.11215 39966 ft 481 kts 211°
2026-05-08 16:51 11.22026 -134.14425 39967 ft 481 kts 211°
2026-05-08 16:51 11.16098 -134.17655 39966 ft 481 kts 211°
2026-05-08 16:52 11.10212 -134.20861 39964 ft 481 kts 211°
2026-05-08 16:52 11.04301 -134.24078 39974 ft 482 kts 211°
2026-05-08 16:53 10.95428 -134.28906 39971 ft 482 kts 211°
2026-05-08 16:53 10.89535 -134.32111 39958 ft 482 kts 211°
2026-05-08 16:54 10.83600 -134.35337 39956 ft 483 kts 211°
2026-05-08 16:54 10.77656 -134.38567 39968 ft 483 kts 211°
2026-05-08 16:55 10.71755 -134.41772 39963 ft 484 kts 211°
2026-05-08 16:55 10.65805 -134.45002 39959 ft 484 kts 211°
2026-05-08 16:56 10.59843 -134.48236 39959 ft 484 kts 211°
2026-05-08 16:56 10.53927 -134.51445 39969 ft 484 kts 211°
2026-05-08 16:57 10.47999 -134.54658 39966 ft 484 kts 211°
2026-05-08 16:57 10.42044 -134.57885 39954 ft 484 kts 211°
2026-05-08 16:58 10.36091 -134.61110 39954 ft 484 kts 211°
2026-05-08 16:58 10.30183 -134.64308 39954 ft 483 kts 211°
2026-05-08 16:59 10.24234 -134.67527 39969 ft 483 kts 211°
2026-05-08 16:59 10.18305 -134.70734 39968 ft 483 kts 211°
2026-05-08 17:00 10.12389 -134.73933 39967 ft 483 kts 211°
2026-05-08 17:00 10.06427 -134.77155 39960 ft 484 kts 211°
2026-05-08 17:01 10.00519 -134.80347 39952 ft 484 kts 211°
2026-05-08 17:01 9.94556 -134.83567 39957 ft 484 kts 211°
2026-05-08 17:02 9.88647 -134.86757 39959 ft 484 kts 211°
2026-05-08 17:02 9.82676 -134.89979 39957 ft 484 kts 210°
2026-05-08 17:03 9.76764 -134.93168 39964 ft 484 kts 210°
2026-05-08 17:03 9.70796 -134.96385 39963 ft 484 kts 211°
2026-05-08 17:04 9.64863 -134.99582 39961 ft 484 kts 210°
2026-05-08 17:04 9.58916 -135.02786 39962 ft 484 kts 210°
2026-05-08 17:05 9.52945 -135.06001 39957 ft 484 kts 210°
2026-05-08 17:05 9.47012 -135.09195 39957 ft 484 kts 210°
2026-05-08 17:06 9.41074 -135.12390 39957 ft 484 kts 210°
2026-05-08 17:06 9.35121 -135.15592 39952 ft 484 kts 210°
2026-05-08 17:07 9.29152 -135.18801 39952 ft 485 kts 210°
2026-05-08 17:07 9.23215 -135.21991 39955 ft 484 kts 210°
2026-05-08 17:08 9.17244 -135.25199 39955 ft 483 kts 210°
2026-05-08 17:08 9.11325 -135.28378 39956 ft 483 kts 210°
2026-05-08 17:09 9.05373 -135.31574 39953 ft 484 kts 210°
2026-05-08 17:09 8.99448 -135.34753 39955 ft 484 kts 210°
2026-05-08 17:10 8.93479 -135.37954 39953 ft 484 kts 210°
2026-05-08 17:10 8.87531 -135.41144 39949 ft 483 kts 210°
2026-05-08 17:11 8.81614 -135.44311 39955 ft 483 kts 210°
2026-05-08 17:11 8.75668 -135.47507 39955 ft 483 kts 210°
2026-05-08 17:12 8.69745 -135.50676 39953 ft 483 kts 210°
2026-05-08 17:12 8.63811 -135.53851 39951 ft 483 kts 210°
2026-05-08 17:13 8.57849 -135.57042 39950 ft 484 kts 210°
2026-05-08 17:13 8.51923 -135.60213 39952 ft 483 kts 210°
2026-05-08 17:14 8.45952 -135.63406 39954 ft 483 kts 210°
2026-05-08 17:14 8.40045 -135.66564 39952 ft 483 kts 210°
2026-05-08 17:15 8.34088 -135.69749 39954 ft 483 kts 210°
2026-05-08 17:15 8.28181 -135.72905 39955 ft 483 kts 210°
2026-05-08 17:16 8.22229 -135.76084 39952 ft 483 kts 210°
2026-05-08 17:16 8.16315 -135.79242 39956 ft 483 kts 210°
2026-05-08 17:17 8.10354 -135.82423 39955 ft 484 kts 210°
2026-05-08 17:17 8.04394 -135.85603 39955 ft 484 kts 210°
2026-05-08 17:18 7.98482 -135.88757 39958 ft 484 kts 210°
2026-05-08 17:18 7.92515 -135.91938 39957 ft 484 kts 210°
2026-05-08 17:19 7.86580 -135.95102 39954 ft 484 kts 210°
2026-05-08 17:19 7.80598 -135.98290 39956 ft 485 kts 209°
2026-05-08 17:20 7.74618 -136.01475 39954 ft 485 kts 209°
2026-05-08 17:20 7.68686 -136.04634 39954 ft 485 kts 209°
2026-05-08 17:21 7.62702 -136.07819 39956 ft 485 kts 209°
2026-05-08 17:21 7.56729 -136.10998 39957 ft 485 kts 209°
2026-05-08 17:22 7.50774 -136.14166 39956 ft 486 kts 210°
2026-05-08 17:22 7.44794 -136.17347 39955 ft 486 kts 210°
2026-05-08 17:23 7.38814 -136.20526 39956 ft 485 kts 209°
2026-05-08 17:23 7.32861 -136.23689 39956 ft 486 kts 209°
2026-05-08 17:24 7.26859 -136.26885 39958 ft 486 kts 209°
2026-05-08 17:24 7.20889 -136.30056 39959 ft 486 kts 210°
2026-05-08 17:25 7.14894 -136.33238 39958 ft 487 kts 209°
2026-05-08 17:25 7.08897 -136.36427 39958 ft 487 kts 208°
2026-05-08 17:26 7.02913 -136.39602 39958 ft 486 kts 208°
2026-05-08 17:26 6.96929 -136.42770 39955 ft 485 kts 208°
2026-05-08 17:27 6.90987 -136.45920 39958 ft 485 kts 208°
2026-05-08 17:27 6.85005 -136.49091 39957 ft 486 kts 208°
2026-05-08 17:28 6.79021 -136.52262 39958 ft 489 kts 208°
2026-05-08 17:28 6.72994 -136.55456 39957 ft 489 kts 208°
2026-05-08 17:29 6.67991 -136.58106 39960 ft 488 kts 208°
2026-05-08 17:29 6.61990 -136.61285 39956 ft 485 kts 208°
2026-05-08 17:30 6.56029 -136.64442 39960 ft 485 kts 208°
2026-05-08 17:30 6.50037 -136.67613 39961 ft 485 kts 208°
2026-05-08 17:31 6.44078 -136.70767 39961 ft 486 kts 208°
2026-05-08 17:31 6.38077 -136.73941 39960 ft 486 kts 208°
2026-05-08 17:32 6.32100 -136.77103 39961 ft 488 kts 208°
2026-05-08 17:32 6.26052 -136.80301 39962 ft 493 kts 208°
2026-05-08 17:33 6.19960 -136.83521 39963 ft 494 kts 208°
2026-05-08 17:33 6.13901 -136.86723 39963 ft 494 kts 208°
2026-05-08 17:34 6.07843 -136.89928 39962 ft 494 kts 208°
2026-05-08 17:34 6.01734 -136.93158 39963 ft 496 kts 208°
2026-05-08 17:35 5.95613 -136.96386 39960 ft 496 kts 208°
2026-05-08 17:35 5.89520 -136.99601 39961 ft 495 kts 208°
2026-05-08 17:36 5.83437 -137.02809 39963 ft 496 kts 208°
2026-05-08 17:36 5.77316 -137.06040 39963 ft 496 kts 208°
2026-05-08 17:37 5.71231 -137.09250 39963 ft 495 kts 208°
2026-05-08 17:37 5.65112 -137.12478 39961 ft 495 kts 208°
2026-05-08 17:38 5.59034 -137.15683 39967 ft 495 kts 208°
2026-05-08 17:38 5.52907 -137.18913 39968 ft 496 kts 208°
2026-05-08 17:39 5.46828 -137.22116 39962 ft 494 kts 208°
2026-05-08 17:39 5.40743 -137.25323 39964 ft 494 kts 208°
2026-05-08 17:40 5.34642 -137.28537 39966 ft 493 kts 208°
2026-05-08 17:40 5.28594 -137.31724 39970 ft 494 kts 208°
2026-05-08 17:41 5.22475 -137.34942 39972 ft 496 kts 208°
2026-05-08 17:41 5.16399 -137.38141 39968 ft 496 kts 208°
2026-05-08 17:42 5.10279 -137.41365 39969 ft 497 kts 207°
2026-05-08 17:42 5.04175 -137.44577 39969 ft 497 kts 207°
2026-05-08 17:43 4.98026 -137.47816 39967 ft 499 kts 208°
2026-05-08 17:43 4.91888 -137.51044 39966 ft 500 kts 208°
2026-05-08 17:44 4.85721 -137.54285 39966 ft 500 kts 207°
2026-05-08 17:44 4.79579 -137.57513 39969 ft 500 kts 208°
2026-05-08 17:45 4.73421 -137.60748 39970 ft 499 kts 207°
2026-05-08 17:45 4.67252 -137.63991 39969 ft 499 kts 207°
2026-05-08 17:46 4.61136 -137.67206 39966 ft 500 kts 207°
2026-05-08 17:46 4.54961 -137.70450 39966 ft 500 kts 207°
2026-05-08 17:47 4.48796 -137.73688 39962 ft 499 kts 207°
2026-05-08 17:47 4.43680 -137.76375 39970 ft 499 kts 207°
2026-05-08 17:48 4.36515 -137.80137 39970 ft 498 kts 207°
2026-05-08 17:48 4.30394 -137.83350 39966 ft 498 kts 207°
2026-05-08 17:49 4.24250 -137.86575 39967 ft 497 kts 207°
2026-05-08 17:49 4.18117 -137.89793 39964 ft 496 kts 207°
2026-05-08 17:50 4.12033 -137.92985 39964 ft 496 kts 207°
2026-05-08 17:50 4.05917 -137.96194 39966 ft 495 kts 207°
2026-05-08 17:51 3.99802 -137.99401 39969 ft 495 kts 207°
2026-05-08 17:51 3.93686 -138.02608 39966 ft 495 kts 207°
2026-05-08 17:52 3.87606 -138.05796 39968 ft 495 kts 207°
2026-05-08 17:53 3.78451 -138.10595 39968 ft 495 kts 207°
2026-05-08 17:53 3.72351 -138.13792 39964 ft 495 kts 207°
2026-05-08 17:54 3.66267 -138.16980 39964 ft 495 kts 207°
2026-05-08 17:54 3.60201 -138.20159 39964 ft 494 kts 207°
2026-05-08 17:55 3.54100 -138.23355 39963 ft 494 kts 207°
2026-05-08 17:55 3.47987 -138.26554 39962 ft 494 kts 207°
2026-05-08 17:56 3.41871 -138.29639 39968 ft 494 kts 206°
2026-05-08 17:56 3.35683 -138.32716 39967 ft 494 kts 206°
2026-05-08 17:57 3.29556 -138.35774 39961 ft 494 kts 206°
2026-05-08 17:57 3.23439 -138.38840 39964 ft 494 kts 207°
2026-05-08 17:58 3.17292 -138.41926 39968 ft 494 kts 207°
2026-05-08 17:58 3.11130 -138.45020 39966 ft 494 kts 206°
2026-05-08 17:59 3.05018 -138.48087 39966 ft 494 kts 206°
2026-05-08 17:59 2.98877 -138.51169 39963 ft 494 kts 206°
2026-05-08 18:00 2.92724 -138.54256 39968 ft 494 kts 206°
2026-05-08 18:00 2.83540 -138.58864 39969 ft 493 kts 207°
2026-05-08 18:01 2.77416 -138.61935 39967 ft 491 kts 207°
2026-05-08 18:01 2.71330 -138.64988 39966 ft 491 kts 207°
2026-05-08 18:02 2.66209 -138.67556 39965 ft 491 kts 207°
2026-05-08 18:02 2.59124 -138.71109 39967 ft 490 kts 207°
2026-05-08 18:03 2.53013 -138.74172 39962 ft 489 kts 207°
2026-05-08 18:03 2.46956 -138.77209 39963 ft 489 kts 207°
2026-05-08 18:04 2.40872 -138.80259 39964 ft 488 kts 207°
2026-05-08 18:04 2.34780 -138.83312 39967 ft 488 kts 207°
2026-05-08 18:05 2.28730 -138.86344 39968 ft 488 kts 207°
2026-05-08 18:05 2.22637 -138.89397 39966 ft 487 kts 207°
2026-05-08 18:06 2.16568 -138.92438 39962 ft 487 kts 207°
2026-05-08 18:06 2.10540 -138.95458 39964 ft 487 kts 207°
2026-05-08 18:07 2.04487 -138.98491 39964 ft 487 kts 207°
2026-05-08 18:07 1.98405 -139.01538 39967 ft 487 kts 207°
2026-05-08 18:08 1.92381 -139.04555 39965 ft 487 kts 207°
2026-05-08 18:08 1.86311 -139.07596 39965 ft 487 kts 207°
2026-05-08 18:09 1.80276 -139.10618 39963 ft 487 kts 207°
2026-05-08 18:09 1.74209 -139.13656 39963 ft 487 kts 207°
2026-05-08 18:10 1.68138 -139.16703 39967 ft 487 kts 208°
2026-05-08 18:10 1.62088 -139.19731 39963 ft 488 kts 208°
2026-05-08 18:11 1.56008 -139.22771 39967 ft 488 kts 208°
2026-05-08 18:11 1.49966 -139.25794 39967 ft 488 kts 208°
2026-05-08 18:12 1.43867 -139.28847 39962 ft 488 kts 208°
2026-05-08 18:12 1.37803 -139.31881 39969 ft 491 kts 208°
2026-05-08 18:13 1.31685 -139.34948 39964 ft 491 kts 208°
2026-05-08 18:13 1.25609 -139.37988 39967 ft 491 kts 208°
2026-05-08 18:14 1.19503 -139.41043 39968 ft 491 kts 208°
2026-05-08 18:14 1.13390 -139.44105 39967 ft 490 kts 208°
2026-05-08 18:15 1.07304 -139.47153 39971 ft 488 kts 207°
2026-05-08 18:15 1.01254 -139.50178 39970 ft 487 kts 207°
2026-05-08 18:16 0.95169 -139.53221 39973 ft 487 kts 207°
2026-05-08 18:16 0.89146 -139.56236 39969 ft 486 kts 208°
2026-05-08 18:17 0.83077 -139.59274 39971 ft 485 kts 207°
2026-05-08 18:17 0.77078 -139.62274 39971 ft 484 kts 207°
2026-05-08 18:18 0.71080 -139.65274 39971 ft 484 kts 207°
2026-05-08 18:18 0.66062 -139.67785 39971 ft 483 kts 207°
2026-05-08 18:19 0.60025 -139.70806 39972 ft 484 kts 207°
2026-05-08 18:19 0.54041 -139.73800 39971 ft 483 kts 207°
2026-05-08 18:20 0.48007 -139.76818 39972 ft 482 kts 207°
2026-05-08 18:20 0.42024 -139.79811 39971 ft 482 kts 207°
2026-05-08 18:21 0.36011 -139.82819 39971 ft 482 kts 207°
2026-05-08 18:21 0.30030 -139.85812 39971 ft 482 kts 207°
2026-05-08 18:22 0.24024 -139.88816 39971 ft 482 kts 207°
2026-05-08 18:22 0.18009 -139.91825 39974 ft 482 kts 207°
2026-05-08 18:23 0.12043 -139.94810 39971 ft 482 kts 207°
2026-05-08 18:23 0.06036 -139.97815 39972 ft 482 kts 207°
2026-05-08 18:24 0.00057 -140.00807 39973 ft 482 kts 207°
2026-05-08 18:24 -0.05965 -140.03819 39972 ft 483 kts 207°
2026-05-08 18:25 -0.11973 -140.06818 39974 ft 484 kts 207°
2026-05-08 18:25 -0.18011 -140.09834 39975 ft 484 kts 207°
2026-05-08 18:26 -0.24000 -140.12826 39971 ft 484 kts 207°
2026-05-08 18:26 -0.30043 -140.15846 39973 ft 484 kts 207°
2026-05-08 18:27 -0.35060 -140.18353 39971 ft 485 kts 207°
2026-05-08 18:27 -0.42077 -140.21860 39971 ft 485 kts 207°
2026-05-08 18:28 -0.48100 -140.24870 39972 ft 485 kts 207°
2026-05-08 18:28 -0.54152 -140.27894 39971 ft 485 kts 207°
2026-05-08 18:29 -0.60195 -140.30914 39974 ft 485 kts 207°
2026-05-08 18:29 -0.66209 -140.33919 39969 ft 485 kts 208°
2026-05-08 18:30 -0.72276 -140.36951 39971 ft 485 kts 208°
2026-05-08 18:30 -0.78291 -140.39957 39971 ft 485 kts 207°
2026-05-08 18:31 -0.84343 -140.42982 39972 ft 485 kts 207°
2026-05-08 18:31 -0.90349 -140.45984 39972 ft 485 kts 208°
2026-05-08 18:32 -0.96395 -140.49006 39969 ft 485 kts 207°
2026-05-08 18:32 -1.02441 -140.52028 39969 ft 484 kts 208°
2026-05-08 18:33 -1.08443 -140.55028 39971 ft 484 kts 208°
2026-05-08 18:33 -1.14481 -140.58046 39971 ft 484 kts 207°
2026-05-08 18:34 -1.20483 -140.61047 39972 ft 484 kts 208°
2026-05-08 18:34 -1.26519 -140.64064 39971 ft 484 kts 208°
2026-05-08 18:35 -1.32564 -140.67087 39968 ft 484 kts 208°
2026-05-08 18:35 -1.38563 -140.70087 39969 ft 484 kts 207°
2026-05-08 18:36 -1.44607 -140.73109 39969 ft 484 kts 208°
2026-05-08 18:36 -1.50613 -140.76112 39969 ft 484 kts 208°
2026-05-08 18:37 -1.56640 -140.79125 39971 ft 484 kts 208°
2026-05-08 18:37 -1.62631 -140.82122 39972 ft 483 kts 208°
2026-05-08 18:38 -1.68648 -140.85131 39968 ft 483 kts 208°
2026-05-08 18:38 -1.74680 -140.88148 39972 ft 484 kts 208°
2026-05-08 18:39 -1.80663 -140.91141 39972 ft 483 kts 208°
2026-05-08 18:39 -1.86659 -140.94141 39971 ft 482 kts 208°
2026-05-08 18:40 -1.92674 -140.97150 39971 ft 482 kts 208°
2026-05-08 18:40 -1.98685 -141.00157 39971 ft 482 kts 208°
2026-05-08 18:41 -2.04681 -141.03158 39974 ft 482 kts 208°
2026-05-08 18:41 -2.10656 -141.06149 39975 ft 482 kts 208°
2026-05-08 18:42 -2.16647 -141.09146 39974 ft 480 kts 208°
2026-05-08 18:42 -2.22625 -141.12138 39974 ft 480 kts 208°
2026-05-08 18:43 -2.28606 -141.15131 39971 ft 480 kts 208°
2026-05-08 18:43 -2.34561 -141.18113 39972 ft 480 kts 208°
2026-05-08 18:44 -2.40547 -141.21109 39972 ft 480 kts 208°
2026-05-08 18:44 -2.46491 -141.24085 39971 ft 479 kts 208°
2026-05-08 18:45 -2.52459 -141.27074 39974 ft 479 kts 208°
2026-05-08 18:45 -2.58383 -141.30041 39974 ft 479 kts 208°
2026-05-08 18:46 -2.64351 -141.33030 39971 ft 479 kts 208°
2026-05-08 18:46 -2.70314 -141.36017 39971 ft 479 kts 208°
2026-05-08 18:47 -2.76257 -141.38994 39972 ft 479 kts 208°
2026-05-08 18:47 -2.82181 -141.41962 39971 ft 479 kts 208°
2026-05-08 18:48 -2.88150 -141.44953 39971 ft 479 kts 208°
2026-05-08 18:48 -2.94086 -141.47928 39972 ft 479 kts 208°
2026-05-08 18:49 -3.00061 -141.50922 39972 ft 479 kts 208°
2026-05-08 18:49 -3.06020 -141.53909 39974 ft 478 kts 208°
2026-05-08 18:50 -3.11946 -141.56880 39971 ft 478 kts 208°
2026-05-08 18:50 -3.17900 -141.59865 39971 ft 478 kts 208°
2026-05-08 18:51 -3.23811 -141.62829 39972 ft 478 kts 207°
2026-05-08 18:51 -3.29772 -141.65818 39972 ft 478 kts 207°
2026-05-08 18:52 -3.35731 -141.68807 39971 ft 477 kts 207°
2026-05-08 18:52 -3.41644 -141.71774 39971 ft 477 kts 207°
2026-05-08 18:53 -3.47593 -141.74758 39972 ft 477 kts 207°
2026-05-08 18:53 -3.53503 -141.77724 39971 ft 477 kts 207°
2026-05-08 18:54 -3.59444 -141.80706 39971 ft 477 kts 207°
2026-05-08 18:54 -3.65355 -141.83673 39970 ft 476 kts 208°
2026-05-08 18:55 -3.74246 -141.88136 39972 ft 475 kts 208°
2026-05-08 18:56 -3.80130 -141.91091 39970 ft 475 kts 208°
2026-05-08 18:56 -3.86029 -141.94053 39973 ft 475 kts 208°
2026-05-08 18:57 -3.91951 -141.97028 39974 ft 475 kts 208°
2026-05-08 18:57 -3.97833 -141.99982 39972 ft 474 kts 208°
2026-05-08 18:58 -4.03742 -142.02951 39975 ft 473 kts 208°
2026-05-08 18:58 -4.09625 -142.05908 39975 ft 473 kts 208°
2026-05-08 18:59 -4.15496 -142.08859 39975 ft 474 kts 208°
2026-05-08 18:59 -4.21398 -142.11826 39977 ft 474 kts 208°
2026-05-08 19:00 -4.26299 -142.14290 39974 ft 473 kts 208°
2026-05-08 19:00 -4.33147 -142.17733 39977 ft 472 kts 208°
2026-05-08 19:01 -4.39018 -142.20686 39977 ft 472 kts 208°
2026-05-08 19:01 -4.44860 -142.23625 39975 ft 472 kts 208°
2026-05-08 19:02 -4.50707 -142.26566 39976 ft 472 kts 208°
2026-05-08 19:02 -4.56584 -142.29524 39975 ft 471 kts 208°
2026-05-08 19:03 -4.62406 -142.32454 39975 ft 470 kts 208°
2026-05-08 19:03 -4.68263 -142.35403 39975 ft 470 kts 208°
2026-05-08 19:04 -4.74125 -142.38354 39975 ft 470 kts 208°
2026-05-08 19:04 -4.79943 -142.41284 39977 ft 470 kts 208°
2026-05-08 19:05 -4.85798 -142.44233 39977 ft 469 kts 208°
2026-05-08 19:05 -4.91608 -142.47160 39973 ft 468 kts 208°
2026-05-08 19:06 -4.97447 -142.50103 39977 ft 468 kts 208°
2026-05-08 19:06 -5.03240 -142.53025 39978 ft 468 kts 208°
2026-05-08 19:07 -5.09038 -142.55952 39974 ft 468 kts 208°
2026-05-08 19:07 -5.14867 -142.58895 39976 ft 468 kts 208°
2026-05-08 19:08 -5.20683 -142.61831 39977 ft 466 kts 208°
2026-05-08 19:08 -5.26467 -142.64753 39977 ft 466 kts 208°
2026-05-08 19:09 -5.31280 -142.67184 39983 ft 466 kts 208°
2026-05-08 19:09 -5.37070 -142.70110 39981 ft 466 kts 208°
2026-05-08 19:10 -5.42863 -142.73038 39973 ft 466 kts 208°
2026-05-08 19:10 -5.48638 -142.75958 39979 ft 465 kts 209°
2026-05-08 19:11 -5.54410 -142.78876 39976 ft 464 kts 209°
2026-05-08 19:11 -5.60195 -142.81802 39978 ft 464 kts 209°
2026-05-08 19:12 -5.65948 -142.84712 39979 ft 464 kts 209°
2026-05-08 19:12 -5.71741 -142.87644 39978 ft 464 kts 209°
2026-05-08 19:13 -5.77488 -142.90552 39977 ft 464 kts 209°
2026-05-08 19:13 -5.83281 -142.93485 39976 ft 464 kts 209°
2026-05-08 19:14 -5.89021 -142.96391 39975 ft 464 kts 209°
2026-05-08 19:14 -5.94809 -142.99322 39978 ft 465 kts 208°
2026-05-08 19:15 -6.00557 -143.02234 39978 ft 465 kts 208°
2026-05-08 19:15 -6.06344 -143.05167 39978 ft 465 kts 208°
2026-05-08 19:16 -6.12128 -143.08098 39971 ft 464 kts 209°
2026-05-08 19:16 -6.17863 -143.11005 39973 ft 464 kts 209°
2026-05-08 19:17 -6.23656 -143.13942 39976 ft 464 kts 209°
2026-05-08 19:17 -6.29394 -143.16852 39973 ft 464 kts 209°
2026-05-08 19:18 -6.35180 -143.19788 39972 ft 464 kts 209°
2026-05-08 19:18 -6.40904 -143.22693 39976 ft 464 kts 209°
2026-05-08 19:19 -6.46678 -143.25623 39967 ft 463 kts 209°
2026-05-08 19:19 -6.52437 -143.28547 39983 ft 463 kts 208°
2026-05-08 19:20 -6.58164 -143.31456 39983 ft 463 kts 208°
2026-05-08 19:20 -6.63909 -143.34374 39978 ft 463 kts 208°
2026-05-08 19:21 -6.69663 -143.37297 39982 ft 463 kts 208°
2026-05-08 19:21 -6.75429 -143.40228 39988 ft 463 kts 208°
2026-05-08 19:22 -6.81165 -143.43144 39987 ft 463 kts 208°
2026-05-08 19:22 -6.86936 -143.46078 39988 ft 463 kts 208°
2026-05-08 19:23 -6.92659 -143.48989 39971 ft 463 kts 208°
2026-05-08 19:23 -6.98431 -143.51926 39969 ft 464 kts 208°
2026-05-08 19:24 -7.04167 -143.54845 39974 ft 464 kts 208°
2026-05-08 19:24 -7.09938 -143.57783 39989 ft 464 kts 208°
2026-05-08 19:25 -7.15710 -143.60722 39991 ft 464 kts 208°
2026-05-08 19:25 -7.21447 -143.63644 39993 ft 464 kts 208°
2026-05-08 19:26 -7.27218 -143.66585 39977 ft 464 kts 208°
2026-05-08 19:26 -7.32950 -143.69506 39975 ft 464 kts 208°
2026-05-08 19:27 -7.38722 -143.72449 39981 ft 464 kts 208°
2026-05-08 19:27 -7.44456 -143.75373 39993 ft 464 kts 208°
2026-05-08 19:28 -7.50226 -143.78316 39981 ft 464 kts 208°
2026-05-08 19:28 -7.56000 -143.81263 39994 ft 464 kts 208°
2026-05-08 19:29 -7.61735 -143.84190 39979 ft 464 kts 208°
2026-05-08 19:29 -7.67516 -143.87141 39983 ft 464 kts 208°
2026-05-08 19:30 -7.73269 -143.90079 39985 ft 464 kts 208°
2026-05-08 19:30 -7.79037 -143.93026 39986 ft 464 kts 208°
2026-05-08 19:31 -7.84808 -143.95976 39987 ft 464 kts 208°
2026-05-08 19:31 -7.90544 -143.98908 39984 ft 465 kts 208°
2026-05-08 19:32 -7.96319 -144.01860 39984 ft 465 kts 208°
2026-05-08 19:32 -8.02100 -144.04818 39984 ft 465 kts 208°
2026-05-08 19:33 -8.07879 -144.07775 39988 ft 465 kts 208°
2026-05-08 19:33 -8.13630 -144.10718 39988 ft 465 kts 208°
2026-05-08 19:34 -8.19411 -144.13678 39990 ft 465 kts 208°
2026-05-08 19:34 -8.25188 -144.16637 39992 ft 465 kts 208°
2026-05-08 19:35 -8.30937 -144.19582 39996 ft 465 kts 208°
2026-05-08 19:35 -8.36728 -144.22550 39992 ft 465 kts 208°
2026-05-08 19:36 -8.42472 -144.25495 39993 ft 466 kts 208°
2026-05-08 19:36 -8.48274 -144.28471 39989 ft 466 kts 208°
2026-05-08 19:37 -8.54043 -144.31431 39992 ft 466 kts 208°
2026-05-08 19:37 -8.59830 -144.34401 39991 ft 466 kts 208°
2026-05-08 19:38 -8.65588 -144.37357 39992 ft 466 kts 208°
2026-05-08 19:38 -8.71377 -144.40330 39989 ft 466 kts 208°
2026-05-08 19:39 -8.77168 -144.43305 39992 ft 466 kts 208°
2026-05-08 19:39 -8.82926 -144.46264 39989 ft 466 kts 208°
2026-05-08 19:40 -8.88719 -144.49242 39993 ft 466 kts 208°
2026-05-08 19:40 -8.94511 -144.52221 39990 ft 466 kts 208°
2026-05-08 19:41 -9.00279 -144.55189 39993 ft 466 kts 208°
2026-05-08 19:41 -9.06051 -144.58159 39994 ft 466 kts 208°
2026-05-08 19:42 -9.11843 -144.61141 39994 ft 466 kts 208°
2026-05-08 19:42 -9.17633 -144.64123 39992 ft 467 kts 208°
2026-05-08 19:43 -9.23432 -144.67111 39994 ft 467 kts 208°
2026-05-08 19:43 -9.29199 -144.70083 39995 ft 467 kts 208°
2026-05-08 19:44 -9.35003 -144.73076 39991 ft 467 kts 208°
2026-05-08 19:44 -9.40760 -144.76045 39992 ft 467 kts 208°
2026-05-08 19:45 -9.46559 -144.79037 39993 ft 467 kts 208°
2026-05-08 19:45 -9.52369 -144.82033 39994 ft 467 kts 208°
2026-05-08 19:46 -9.58137 -144.85008 39993 ft 467 kts 208°
2026-05-08 19:46 -9.66821 -144.89494 39993 ft 468 kts 208°
2026-05-08 19:47 -9.72641 -144.92502 39993 ft 468 kts 208°
2026-05-08 19:47 -9.78424 -144.95493 39993 ft 468 kts 208°
2026-05-08 19:48 -9.84230 -144.98497 39995 ft 468 kts 208°
2026-05-08 19:48 -9.89994 -145.01480 39995 ft 468 kts 208°
2026-05-08 19:49 -9.95800 -145.04485 39996 ft 468 kts 208°
2026-05-08 19:49 -10.01605 -145.07494 39995 ft 468 kts 208°
2026-05-08 19:50 -10.07383 -145.10478 39996 ft 468 kts 208°
2026-05-08 19:50 -10.13219 -145.13487 39996 ft 468 kts 208°
2026-05-08 19:51 -10.18997 -145.16470 39998 ft 468 kts 208°
2026-05-08 19:51 -10.24808 -145.19473 40000 ft 468 kts 208°
2026-05-08 19:52 -10.30588 -145.22462 39998 ft 468 kts 208°
2026-05-08 19:52 -10.36405 -145.25471 39999 ft 468 kts 208°
2026-05-08 19:53 -10.42194 -145.28467 39999 ft 468 kts 208°
2026-05-08 19:53 -10.48011 -145.31479 39999 ft 468 kts 208°
2026-05-08 19:54 -10.53820 -145.34487 40000 ft 468 kts 208°
2026-05-08 19:54 -10.59608 -145.37486 39999 ft 468 kts 208°
2026-05-08 19:55 -10.65427 -145.40503 40000 ft 468 kts 208°
2026-05-08 19:55 -10.71220 -145.43507 40004 ft 468 kts 208°
2026-05-08 19:56 -10.77041 -145.46527 40003 ft 468 kts 208°
2026-05-08 19:56 -10.82815 -145.49524 40004 ft 468 kts 208°
2026-05-08 19:57 -10.88636 -145.52547 40003 ft 468 kts 208°
2026-05-08 19:57 -10.94444 -145.55564 40004 ft 468 kts 208°
2026-05-08 19:58 -11.00228 -145.58570 40004 ft 468 kts 208°
2026-05-08 19:58 -11.05070 -145.61088 40004 ft 468 kts 208°
2026-05-08 19:59 -11.10880 -145.64110 40008 ft 468 kts 208°
2026-05-08 19:59 -11.16675 -145.67126 40006 ft 468 kts 208°
2026-05-08 20:00 -11.22468 -145.70142 40014 ft 468 kts 208°
2026-05-08 20:00 -11.28276 -145.73167 40010 ft 469 kts 208°
2026-05-08 20:01 -11.34048 -145.76175 40008 ft 469 kts 208°
2026-05-08 20:01 -11.39865 -145.79207 40003 ft 469 kts 208°
2026-05-08 20:02 -11.45673 -145.82237 40006 ft 469 kts 208°
2026-05-08 20:02 -11.51490 -145.85272 40009 ft 468 kts 208°
2026-05-08 20:03 -11.57270 -145.88290 40010 ft 469 kts 208°
2026-05-08 20:03 -11.63092 -145.91331 40012 ft 469 kts 208°
2026-05-08 20:04 -11.68912 -145.94372 40012 ft 469 kts 208°
2026-05-08 20:04 -11.74688 -145.97392 40016 ft 469 kts 208°
2026-05-08 20:05 -11.80521 -146.00443 40013 ft 469 kts 208°
2026-05-08 20:05 -11.86300 -146.03467 40012 ft 469 kts 208°
2026-05-08 20:06 -11.92110 -146.06509 40015 ft 470 kts 208°
2026-05-08 20:06 -11.97953 -146.09570 40016 ft 470 kts 208°
2026-05-08 20:07 -12.03741 -146.12603 40015 ft 470 kts 208°
2026-05-08 20:07 -12.09575 -146.15662 40016 ft 470 kts 208°
2026-05-08 20:08 -12.15401 -146.18719 40015 ft 470 kts 208°
2026-05-08 20:08 -12.21225 -146.21775 40015 ft 470 kts 208°
2026-05-08 20:09 -12.27017 -146.24816 40017 ft 470 kts 208°
2026-05-08 20:09 -12.32846 -146.27879 40018 ft 470 kts 208°
2026-05-08 20:10 -12.38676 -146.30943 40018 ft 470 kts 208°
2026-05-08 20:10 -12.44464 -146.33987 40019 ft 470 kts 208°
2026-05-08 20:11 -12.50294 -146.37055 40018 ft 470 kts 208°
2026-05-08 20:11 -12.56081 -146.40102 40019 ft 470 kts 208°
2026-05-08 20:12 -12.61918 -146.43176 40016 ft 471 kts 208°
2026-05-08 20:12 -12.67755 -146.46252 40017 ft 471 kts 208°
2026-05-08 20:13 -12.73556 -146.49310 40014 ft 471 kts 208°
2026-05-08 20:13 -12.79390 -146.52388 40017 ft 471 kts 208°
2026-05-08 20:14 -12.85236 -146.55473 40019 ft 471 kts 208°
2026-05-08 20:14 -12.91038 -146.58537 40018 ft 472 kts 208°
2026-05-08 20:15 -12.96877 -146.61622 40018 ft 471 kts 208°
2026-05-08 20:15 -13.02683 -146.64692 40017 ft 471 kts 208°
2026-05-08 20:16 -13.08529 -146.67784 40016 ft 471 kts 208°
2026-05-08 20:16 -13.14332 -146.70855 40015 ft 471 kts 208°
2026-05-08 20:17 -13.20170 -146.73946 40016 ft 472 kts 208°
2026-05-08 20:17 -13.26013 -146.77042 40017 ft 472 kts 208°
2026-05-08 20:18 -13.31865 -146.80144 40020 ft 472 kts 208°
2026-05-08 20:18 -13.37682 -146.83229 40020 ft 472 kts 208°
2026-05-08 20:19 -13.43531 -146.86332 40019 ft 472 kts 208°
2026-05-08 20:19 -13.49343 -146.89418 40021 ft 472 kts 208°
2026-05-08 20:20 -13.55187 -146.92522 40019 ft 473 kts 208°
2026-05-08 20:20 -13.61041 -146.95634 40024 ft 473 kts 208°
2026-05-08 20:21 -13.66901 -146.98751 40020 ft 473 kts 208°
2026-05-08 20:21 -13.72725 -147.01850 40023 ft 473 kts 208°
2026-05-08 20:22 -13.78583 -147.04968 40023 ft 473 kts 208°
2026-05-08 20:22 -13.84397 -147.08066 40027 ft 473 kts 208°
2026-05-08 20:23 -13.90258 -147.11190 40026 ft 474 kts 208°
2026-05-08 20:23 -13.96117 -147.14315 40026 ft 474 kts 208°
2026-05-08 20:24 -14.01941 -147.17423 40022 ft 474 kts 208°
2026-05-08 20:24 -14.07811 -147.20557 40023 ft 474 kts 208°
2026-05-08 20:25 -14.13642 -147.23672 40027 ft 474 kts 208°
2026-05-08 20:25 -14.19503 -147.26806 40025 ft 474 kts 208°
2026-05-08 20:26 -14.25374 -147.29946 40031 ft 474 kts 208°
2026-05-08 20:26 -14.31194 -147.33061 40031 ft 475 kts 208°
2026-05-08 20:27 -14.37068 -147.36206 40029 ft 474 kts 208°
2026-05-08 20:27 -14.42913 -147.39338 40028 ft 475 kts 208°
2026-05-08 20:28 -14.48782 -147.42485 40028 ft 475 kts 208°
2026-05-08 20:28 -14.54652 -147.45634 40030 ft 475 kts 208°
2026-05-08 20:29 -14.60496 -147.48771 40030 ft 476 kts 208°
2026-05-08 20:29 -14.66379 -147.51931 40031 ft 476 kts 208°
2026-05-08 20:30 -14.72260 -147.55092 40033 ft 475 kts 208°
2026-05-08 20:30 -14.78101 -147.58233 40032 ft 476 kts 208°
2026-05-08 20:31 -14.83986 -147.61400 40027 ft 476 kts 208°
2026-05-08 20:31 -14.89834 -147.64549 40034 ft 477 kts 208°
2026-05-08 20:32 -14.95622 -147.67905 40035 ft 476 kts 216°
2026-05-08 20:32 -15.01028 -147.71871 40033 ft 476 kts 217°
2026-05-08 20:33 -15.06365 -147.75936 40032 ft 476 kts 217°
2026-05-08 20:33 -15.11683 -147.80010 40032 ft 476 kts 217°
2026-05-08 20:34 -15.16985 -147.84061 40028 ft 476 kts 217°
2026-05-08 20:35 -15.24996 -147.90173 40028 ft 476 kts 217°
2026-05-08 20:35 -15.30340 -147.94253 40029 ft 476 kts 217°
2026-05-08 20:36 -15.35640 -147.98299 40029 ft 475 kts 217°
2026-05-08 20:36 -15.40965 -148.02370 40029 ft 474 kts 217°
2026-05-08 20:37 -15.46253 -148.06416 40032 ft 474 kts 217°
2026-05-08 20:37 -15.51573 -148.10489 40035 ft 474 kts 217°
2026-05-08 20:38 -15.56899 -148.14568 40037 ft 474 kts 217°
2026-05-08 20:38 -15.62207 -148.18636 40037 ft 474 kts 217°
2026-05-08 20:39 -15.67491 -148.22689 40036 ft 474 kts 217°
2026-05-08 20:39 -15.72807 -148.26769 40031 ft 474 kts 217°
2026-05-08 20:40 -15.78092 -148.30827 40032 ft 474 kts 217°
2026-05-08 20:40 -15.83403 -148.34909 40036 ft 474 kts 217°
2026-05-08 20:41 -15.88695 -148.38976 40035 ft 475 kts 217°
2026-05-08 20:41 -15.91528 -148.40747 40034 ft 476 kts 205°
2026-05-08 20:41 -15.94573 -148.42119 40034 ft 476 kts 203°
2026-05-08 20:42 -16.00719 -148.44704 40036 ft 477 kts 203°
2026-05-08 20:42 -16.06893 -148.47274 40038 ft 477 kts 202°
2026-05-08 20:43 -16.13034 -148.49825 40039 ft 477 kts 203°
2026-05-08 20:43 -16.19184 -148.52386 40041 ft 477 kts 203°
2026-05-08 20:44 -16.25380 -148.54960 40038 ft 478 kts 203°
2026-05-08 20:44 -16.31566 -148.57532 40041 ft 478 kts 203°
2026-05-08 20:45 -16.37731 -148.60098 40048 ft 478 kts 203°
2026-05-08 20:45 -16.43885 -148.62662 40041 ft 478 kts 203°
2026-05-08 20:46 -16.50070 -148.65241 40050 ft 478 kts 203°
2026-05-08 20:46 -16.55207 -148.67384 40047 ft 478 kts 203°
2026-05-08 20:47 -16.61408 -148.69972 40048 ft 478 kts 203°
2026-05-08 20:47 -16.67554 -148.72539 40052 ft 478 kts 203°
2026-05-08 20:48 -16.73736 -148.75124 40046 ft 477 kts 203°
2026-05-08 20:48 -16.79920 -148.77711 40054 ft 478 kts 203°
2026-05-08 20:49 -16.86073 -148.80285 40052 ft 479 kts 203°
2026-05-08 20:49 -16.92263 -148.82880 40052 ft 479 kts 203°
2026-05-08 20:50 -16.98459 -148.85477 40045 ft 478 kts 203°
2026-05-08 20:50 -17.01541 -148.86808 39818 ft 478 kts 206°
2026-05-08 20:50 -17.04433 -148.88423 39580 ft 477 kts 214°
2026-05-08 20:50 -17.07089 -148.90525 39355 ft 478 kts 223°
2026-05-08 20:51 -17.09375 -148.93051 39133 ft 477 kts 232°
2026-05-08 20:51 -17.11335 -148.95802 38903 ft 477 kts 235°
2026-05-08 20:51 -17.13251 -148.98640 38666 ft 479 kts 236°
2026-05-08 20:51 -17.15172 -149.01494 38402 ft 481 kts 235°
2026-05-08 20:52 -17.17112 -149.04364 38139 ft 483 kts 236°
2026-05-08 20:52 -17.19039 -149.07217 37883 ft 484 kts 237°
2026-05-08 20:52 -17.20990 -149.10100 37622 ft 484 kts 236°
2026-05-08 20:52 -17.22943 -149.12998 37361 ft 485 kts 236°
2026-05-08 20:53 -17.24891 -149.15876 36737 ft 482 kts 237°
2026-05-08 20:53 -17.26826 -149.18737 36017 ft 483 kts 236°
2026-05-08 20:53 -17.28769 -149.21612 35297 ft 483 kts 236°
2026-05-08 20:53 -17.30691 -149.24457 34469 ft 487 kts 236°
2026-05-08 20:54 -17.32495 -149.27449 33971 ft 481 kts 245°
2026-05-08 20:54 -17.33517 -149.30732 33678 ft 469 kts 261°
2026-05-08 20:54 -17.33623 -149.34097 33406 ft 457 kts 277°
2026-05-08 20:54 -17.32858 -149.37284 33126 ft 447 kts 292°
2026-05-08 20:55 -17.31449 -149.40095 32867 ft 437 kts 301°
2026-05-08 20:55 -17.29830 -149.42763 32614 ft 428 kts 302°
2026-05-08 20:55 -17.28210 -149.45350 32380 ft 419 kts 303°
2026-05-08 20:55 -17.26600 -149.47910 31725 ft 421 kts 303°
2026-05-08 20:56 -17.24995 -149.50448 30946 ft 427 kts 303°
2026-05-08 20:56 -17.23397 -149.52973 30061 ft 435 kts 303°
2026-05-08 20:56 -17.21703 -149.55649 29030 ft 444 kts 303°
2026-05-08 20:56 -17.19973 -149.58381 27980 ft 452 kts 303°
2026-05-08 20:57 -17.18248 -149.61107 27224 ft 454 kts 303°
2026-05-08 20:57 -17.16501 -149.63867 26676 ft 450 kts 303°
2026-05-08 20:57 -17.14781 -149.66585 26128 ft 447 kts 303°
2026-05-08 20:57 -17.13067 -149.69280 25539 ft 445 kts 303°
2026-05-08 20:58 -17.11145 -149.71814 24906 ft 444 kts 315°
2026-05-08 20:58 -17.08643 -149.73696 24295 ft 444 kts 333°
2026-05-08 20:58 -17.05764 -149.74726 23729 ft 443 kts 350°
2026-05-08 20:58 -17.02711 -149.74837 23099 ft 440 kts
2026-05-08 20:59 -16.99742 -149.74068 22404 ft 437 kts 20°
2026-05-08 20:59 -16.96974 -149.72880 21405 ft 426 kts 27°
2026-05-08 20:59 -16.94483 -149.71240 20253 ft 420 kts 40°
2026-05-08 20:59 -16.92455 -149.69088 19174 ft 411 kts 55°
2026-05-08 21:00 -16.91063 -149.66570 18128 ft 401 kts 69°
2026-05-08 21:00 -16.90308 -149.63733 16882 ft 408 kts 84°
2026-05-08 21:00 -16.90303 -149.60773 16059 ft 406 kts 99°
2026-05-08 21:00 -16.91047 -149.57988 15372 ft 401 kts 114°
2026-05-08 21:01 -16.92511 -149.55521 14686 ft 398 kts 131°
2026-05-08 21:01 -16.94554 -149.53651 14409 ft 385 kts 146°
2026-05-08 21:01 -16.96841 -149.52295 14171 ft 371 kts 152°
2026-05-08 21:01 -16.99103 -149.51089 13913 ft 359 kts 152°
2026-05-08 21:02 -17.01295 -149.49927 13647 ft 347 kts 152°
2026-05-08 21:02 -17.03388 -149.48813 13394 ft 336 kts 152°
2026-05-08 21:02 -17.05433 -149.47722 13172 ft 324 kts 152°
2026-05-08 21:02 -17.07409 -149.46667 12947 ft 313 kts 152°
2026-05-08 21:03 -17.09322 -149.45647 12717 ft 303 kts 150°
2026-05-08 21:03 -17.11181 -149.44651 12290 ft 299 kts 150°
2026-05-08 21:03 -17.13041 -149.43654 11779 ft 301 kts 150°
2026-05-08 21:03 -17.14891 -149.42662 11387 ft 295 kts 151°
2026-05-08 21:04 -17.16688 -149.41696 10637 ft 293 kts 151°
2026-05-08 21:04 -17.18501 -149.40721 9917 ft 291 kts 150°
2026-05-08 21:04 -17.20293 -149.39757 9160 ft 287 kts 150°
2026-05-08 21:04 -17.22042 -149.38818 8411 ft 284 kts 149°
2026-05-08 21:05 -17.23777 -149.37886 7797 ft 275 kts 149°
2026-05-08 21:05 -17.25479 -149.36972 7099 ft 276 kts 149°
2026-05-08 21:05 -17.27180 -149.36060 6732 ft 273 kts 149°
2026-05-08 21:05 -17.28864 -149.35162 6345 ft 270 kts 150°
2026-05-08 21:06 -17.30552 -149.34300 5898 ft 269 kts 151°
2026-05-08 21:06 -17.32264 -149.33589 5634 ft 264 kts 160°
2026-05-08 21:06 -17.34063 -149.33381 5452 ft 259 kts 179°
2026-05-08 21:06 -17.35777 -149.33923 5273 ft 257 kts 203°
2026-05-08 21:07 -17.37215 -149.34987 5139 ft 252 kts 220°
2026-05-08 21:07 -17.38317 -149.36391 5039 ft 244 kts 230°
2026-05-08 21:07 -17.39292 -149.37768 4928 ft 232 kts 228°
2026-05-08 21:07 -17.40224 -149.39093 4862 ft 218 kts 230°
2026-05-08 21:08 -17.41090 -149.40324 4831 ft 202 kts 228°
2026-05-08 21:08 -17.41970 -149.41449 4634 ft 198 kts 224°
2026-05-08 21:08 -17.42873 -149.42539 4368 ft 198 kts 225°
2026-05-08 21:08 -17.43704 -149.43711 4056 ft 202 kts 230°
2026-05-08 21:09 -17.44501 -149.44934 3695 ft 205 kts 230°
2026-05-08 21:09 -17.45343 -149.46170 3310 ft 209 kts 229°
2026-05-08 21:09 -17.46196 -149.47391 2934 ft 211 kts 229°
2026-05-08 21:09 -17.47051 -149.48632 2607 ft 208 kts 229°
2026-05-08 21:10 -17.47868 -149.49847 2398 ft 198 kts 229°
2026-05-08 21:10 -17.48671 -149.51006 2130 ft 195 kts 227°
2026-05-08 21:10 -17.49445 -149.52125 1876 ft 188 kts 229°
2026-05-08 21:10 -17.50186 -149.53215 1598 ft 179 kts 229°
2026-05-08 21:11 -17.50893 -149.54243 1342 ft 169 kts 227°
2026-05-08 21:11 -17.51572 -149.55211 1124 ft 161 kts 228°
2026-05-08 21:11 -17.52211 -149.56147 852 ft 154 kts 226°
2026-05-08 21:11 -17.52843 -149.57056 668 ft 154 kts 225°
2026-05-08 21:12 -17.53475 -149.57951 415 ft 151 kts 235°
2026-05-08 21:12 -17.54061 -149.58811 226 ft 143 kts 238°
2026-05-08 21:12 -17.54627 -149.59643 47 ft 139 kts 242°
2026-05-08 21:12 -17.55142 -149.60391 32 ft 106 kts 234°
2026-05-08 21:13 -17.55473 -149.60871 29 ft 56 kts 234°
2026-05-08 21:13 -17.55600 -149.61056 27 ft 13 kts 234°
2026-05-08 21:13 -17.55645 -149.61120 26 ft 9 kts 225°
2026-05-08 21:13 -17.55702 -149.61116 27 ft 9 kts 147°
2026-05-08 21:14 -17.55734 -149.61093 27 ft 5 kts 146°
2026-05-08 21:14 -17.55762 -149.61074 28 ft 5 kts 146°
2026-05-08 21:14 -17.55793 -149.61052 28 ft 5 kts 145°
2026-05-08 21:14 -17.55826 -149.61027 28 ft 3 kts 144°
2026-05-08 21:15 -17.55845 -149.61013 28 ft 0 kts 144°
2026-05-08 21:15 -17.55850 -149.61009 28 ft 0 kts 144°